Regional Weather Roundup
Issued by NWS

Home | Current Version | Previous Version | Graphics & Text | Print | Product List | Glossary On
Versions: 1 2 3 4 5 6 7 8 9 10 11 12 13 14 15 16 17 18 19 20 21 22 23 24 25 26 27 28 29 30 31 32 33 34 35 36 37 38 39 40 41 42 43 44 45 46 47 48 49 50
000
ASUS45 KSLC 250210
RWRUT

UTAH REGIONAL WEATHER ROUNDUP
NATIONAL WEATHER SERVICE SALT LAKE CITY UT
800 PM MDT FRI MAR 24 2017

UTZ001>011-023>025-250300-

NORTHERN UTAH

CITY           SKY/WX    TMP DP  RH WIND       PRES   REMARKS
BRIGHAM CITY     N/A     53  38  58 CALM      30.05F
HILL AFB       CLOUDY    51  35  55 E8        30.03F
LOGAN          CLOUDY    53  36  52 E7        30.05F
OGDEN          CLOUDY    51  37  58 E6        30.03F
SALT LAKE CITY CLOUDY    55  34  45 SE8       30.02F
WENDOVER       CLOUDY    56  31  38 SE18      29.99S
HEBER CITY     CLOUDY    48  34  57 S6        30.08S

$$

UTZ011>015-024>027-250300-

CENTRAL/NORTHEAST UTAH

CITY           SKY/WX    TMP DP  RH WIND       PRES   REMARKS
PROVO AIRPORT  MOCLDY    52  38  58 E5        30.09S
MOAB/CANYONLAN CLEAR     55  24  30 W9        30.10R
DELTA          MOCLDY    48  34  57 E6        30.07S
PRICE          PTCLDY    50  32  50 E5        30.13S
RICHFIELD      CLEAR     52  30  43 CALM      30.10F
ROOSEVELT      CLOUDY    52  34  50 CALM      30.12S
VERNAL         CLOUDY    50  30  46 S5        30.11S

$$

UTZ013>016-019>022-027-250300-

SOUTHERN UTAH

CITY           SKY/WX    TMP DP  RH WIND       PRES   REMARKS
BRYCE CANYON   CLEAR     43  27  53 SE8       30.21R
CEDAR CITY     CLEAR     50  28  42 SW15G21   30.11S
MILFORD        CLEAR     56  25  30 SW17      30.06F
ST GEORGE      CLOUDY    64  35  34 SE3       30.08F
HANKSVILLE     PTCLDY    57  25  28 SE5       30.12R
KANAB          CLEAR     52  32  46 CALM      30.19R
BLANDING       CLEAR     49  18  28 N6        30.21R

$$

REGIONAL REPORTS     COLORADO/ARIZONA

CITY           SKY/WX    TMP DP  RH WIND       PRES   REMARKS
CRAIG, CO      CLEAR     42  24  49 S5        30.13R
GRAND JUNCTION CLEAR     52  26  36 E5        30.10S
RIFLE, CO      CLEAR     51  26  37 S7        30.12R
MONTROSE, CO   CLEAR     51  28  41 SE5       30.17R
CORTEZ, CO     CLEAR     50  26  39 CALM      30.15R
COLORADO CITY    N/A     57  30  35 NW5       30.18R
PAGE, AZ       CLEAR     59  32  36 NE5       30.13R
GRAND CANYON   CLEAR     44  33  65 CALM      30.23S
KINGMAN, AZ    CLEAR     61  15  16 SW12      30.13S
FLAGSTAFF, AZ  CLEAR     44  34  67 SW5       30.24R

$$

REGIONAL REPORTS    NEVADA/IDAHO/WYOMING

CITY           SKY/WX    TMP DP  RH WIND       PRES   REMARKS
LAS VEGAS, NV  PTCLDY    76  19  11 SW8       29.99S
ELY, NY        PTCLDY    50  24  36 SE14      30.05F
ELKO, NV       LGT RAIN  46  38  73 W16       30.07R
POCATELLO, ID  CLOUDY    50  30  46 S12G22    30.03S
BURLEY, ID     CLOUDY    52  34  50 W12       30.00R
FORT BRIDGER,    N/A     45  33  62 N5        30.14S
EVANSTON, WY   CLOUDY    42  30  62 W7        30.10S
ROCK SPRINGS,  CLEAR     48  27  44 CALM      30.10S
KEMMERER, WY     N/A     36  27  69 N9        30.12S WCI  29

$$



USA.gov is the U.S. government's official web portal to all federal, state and local government web resources and services.